TIME,DELAY(SENSOR),PRES,OXYGEN,RAWTEMP,T(OPTODE),TCPHASE,FLUOR,BETA(BETA700),BETA(BETA412),BETA(BETA440),CDOM,C(CSC),ED(ED411.90),ED(ED443.80),ED(ED489.40),ED(ED554.70),LU(LU412.20),LU(LU443.80),LU(LU489.40),LU(LU555.00),COMP,TILTX,TILTY,CHECK
1360276100,5805,885.0599975585938000,182.9738006591797000,479.4331970214844000,8.1661872863769530,38.6413688659668000,62,144,97,79,79,11967,2146964772,2147514962,2147293979,2147509750,2147084470,2146924635,2147714797,2147119579,3228,-1,9,25004
1360279696,5809,977.9400024414062000,224.3556060791015600,532.7951049804688000,6.5083270072937010,37.0608406066894500,62,154,98,79,80,11957,2146964013,2147517065,2147300662,2147522989,2147087286,2146919634,2147726884,2147120539,47,-1,8,12269
1360283296,5808,988.1900024414062000,234.9624023437500000,540.2423095703125000,6.2753472328186035,36.6255683898925800,66,149,97,80,80,11960,2146964397,2147521161,2147305517,2147520338,2147086921,2146923145,2147728018,2147120265,569,-1,9,38727
1360286896,5805,989.9000244140625000,236.0330047607422000,541.5891723632812000,6.2331662178039550,36.5939216613769500,66,155,98,79,81,11961,2146964937,2147519588,2147302546,2147522989,2147086454,2146921965,2147729261,2147119707,148,-1,9,41217
1360290496,5808,995.1199951171875000,238.6871032714843800,544.2169189453125000,6.1508331298828125,36.5041885375976560,65,148,98,79,80,11960,2146964882,2147520082,2147301952,2147522523,2147086171,2146919021,2147729106,2147122413,50,-1,9,8548
1360294096,5807,1000.8800048828125000,240.6282043457031200,544.5291748046875000,6.1410431861877440,36.4100112915039060,66,148,97,79,81,11956,2146964443,2147519378,2147303058,2147521499,2147086336,2146919780,2147728411,2147120256,446,-1,9,5537
1360297696,5807,1000.6599731445312000,239.8992004394531200,544.9218750000000000,6.1287350654602050,36.4545593261718750,66,146,98,79,80,11950,2146965933,2147520009,2147305627,2147523209,2147085814,2146916086,2147726272,2147120475,495,-1,9,34639
1360301296,5807,1000.2999877929688000,242.4181976318359400,546.5612792968750000,6.0773301124572750,36.3557090759277340,66,145,98,102,81,11953,2146964022,2147520457,2147302144,2147520777,2147088841,2146922203,2147730971,2147120246,3077,-1,8,25745
1360304896,5805,998.3599853515625000,240.8343963623047000,546.5581054687500000,6.0774312019348145,36.4365501403808600,66,147,97,80,82,11949,2146963776,2147519981,2147300864,2147522084,2147091181,2146921014,2147732626,2147123638,2872,-1,9,20380
1360308496,5808,997.7100219726562000,239.8560943603515600,547.5319213867188000,6.0468878746032715,36.5041084289550800,66,146,97,79,80,11944,2146964187,2147514898,2147301842,2147523190,2147086875,2146917092,2147723776,2147119881,82,-1,9,54323
1360312096,5806,995.7899780273438000,242.4049072265625000,548.0137939453125000,6.0317711830139160,36.3829383850097660,64,145,99,79,80,11948,2146960137,2147520521,2147300873,2147523254,2147088950,2146915684,2147730267,2147120548,3571,-1,9,24620
1360315696,5805,1000.3099975585938000,244.0225982666015600,548.3308105468750000,6.0218238830566410,36.3069686889648440,65,145,97,79,80,11947,2146963949,2147517906,2147302637,2147523035,2147086811,2146920576,2147729216,2147122203,3175,-1,9,6516
1360319296,5802,1004.5399780273438000,244.0545959472656200,548.0798950195312000,6.0296969413757320,36.3008308410644500,65,143,99,79,80,11948,2146965193,2147522669,2147301659,2147522861,2147088228,2146917906,2147729307,2147120905,3252,-1,9,7201
1360322896,5805,1009.2100219726562000,243.0729980468750000,546.7490844726562000,6.0714421272277830,36.3265686035156250,65,147,98,78,81,11946,2146965805,2147517485,2147303360,2147521883,2147086400,2146913792,2147723876,2147122240,3400,-1,9,5686
1360326496,5804,1009.4199829101562000,241.8616027832031200,545.9702758789062000,6.0958647727966310,36.3735008239746100,64,147,99,79,80,11947,2146964946,2147518153,2147301110,2147517504,2147087186,2146919414,2147729901,2147122468,3519,-1,9,45919
1360330096,5807,1009.8300170898438000,241.3020935058593800,546.2001953125000000,6.0886549949646000,36.4062881469726560,65,143,98,78,81,11946,2146961344,2147515574,2147300672,2147520603,2147087003,2146919917,2147727561,2147122395,381,-1,9,22214
1360333696,5805,1017.5900268554688000,240.6625061035156200,545.3770141601562000,6.1144661903381350,36.4237709045410160,64,144,98,79,80,11935,2146960457,2147514852,2147300681,2147520950,2147086546,2146922029,2147727296,2147120941,312,0,8,45450
1360337296,5805,1011.8699951171875000,241.0957031250000000,545.7348022460938000,6.1032490730285645,36.4084205627441400,65,149,97,79,81,11943,2146965366,2147516809,2147300452,2147524626,2147087085,2146918619,2147730541,2147121435,3116,-1,9,55896
1360340896,5804,1015.2899780273438000,240.9517974853515600,545.1088256835938000,6.1228728294372560,36.4044990539550800,64,145,97,80,81,11941,2146961362,2147519753,2147305344,2147521837,2147087104,2146918144,2147728155,2147121974,2955,-1,9,45542
1360344496,5804,1009.3599853515625000,242.0158996582031200,547.3881835937500000,6.0513939857482910,36.3910713195800800,63,199,98,79,80,11936,2146962541,2147516827,2147300470,2147520539,2147090377,2146914916,2147729088,2147121051,3324,-1,9,16273
1360348096,5807,1009.5200195312500000,243.9517974853515600,547.7628173828125000,6.0396437644958500,36.3004417419433600,64,143,98,78,80,11934,2146967808,2147515821,2147301238,2147518134,2147086628,2146917385,2147727954,2147124617,3309,0,8,26781
1360351696,5805,1012.7500000000000000,241.7994995117187500,547.0659790039062000,6.0615010261535645,36.3963012695312500,63,144,100,79,81,11935,2146963739,2147517266,2147298788,2147521600,2147087387,2146922925,2147730898,2147122697,3150,-1,9,8965
1360355296,5806,1011.3200073242188000,242.0406036376953000,546.1986083984375000,6.0887050628662110,36.3685111999511700,63,144,98,79,81,11937,2146967250,2147517302,2147298852,2147523227,2147085970,2146922294,2147729801,2147121718,595,-1,8,24927
1360358896,5805,1011.6400146484375000,240.1479949951172000,545.4113769531250000,6.1133880615234375,36.4508781433105500,64,144,98,79,82,11933,2146966921,2147518272,2147301641,2147523373,2147088694,2146923209,2147726765,2147121179,3047,-1,9,1604
1360362496,5805,1016.6900024414062000,241.0782928466797000,546.2808227539062000,6.0861282348632810,36.4193000793457000,64,145,98,78,81,11936,2146964141,2147516626,2147301577,2147525357,2147086509,2146920877,2147728054,2147119506,654,-1,8,49515
1360366096,5807,1015.8699951171875000,239.8211975097656200,546.1461791992188000,6.0903491973876950,36.4808006286621100,64,143,98,79,80,11935,2146966921,2147516205,2147300800,2147523785,2147087113,2146920091,2147727497,2147120731,3199,-1,9,12939
1360369696,5807,1014.2399902343750000,239.7783966064453000,545.7260742187500000,6.1035189628601070,36.4754791259765600,64,146,97,79,81,11930,2146962971,2147521618,2147300544,2147524141,2147086436,2146915538,2147724242,2147122386,3376,-1,9,56280
1360373296,5807,1010.9600219726562000,240.4485931396484400,545.6417846679688000,6.1061649322509770,36.4391784667968750,63,143,99,79,80,11919,2146967341,2147516818,2147300086,2147521472,2147087817,2146918537,2147724982,2147122971,631,-1,8,42647
1360376896,5809,1017.6199951171875000,240.0953979492187500,545.4923706054688000,6.1108489036560060,36.4544410705566400,64,144,98,79,81,11916,2146962614,2147519460,2147304109,2147522779,2147088630,2146922166,2147725988,2147119332,25,-1,8,2213
1360380496,5807,1016.9000244140625000,240.0702056884765600,546.1401977539062000,6.0905380249023440,36.4677696228027340,63,144,98,79,81,11916,2146964251,2147518171,2147301513,2147521270,2147086144,2146919497,2147729792,2147122541,136,0,8,34778
1360384096,5806,1020.5100097656250000,240.3675994873047000,545.6010131835938000,6.1074447631835940,36.4431610107421900,63,147,103,80,81,11919,2146962468,2147520118,2147301275,2147520146,2147087222,2146919643,2147726418,2147123538,3453,-1,8,4068
1360387696,5805,1017.6699829101562000,240.1255950927734400,546.1270751953125000,6.0909461975097660,36.4647789001464840,63,145,98,79,80,11916,2146962285,2147516370,2147299565,2147521993,2147085056,2146924050,2147724626,2147123712,3433,-1,9,36001
1360391296,5806,1017.9600219726562000,240.4765930175781200,545.7451171875000000,6.1029257774353030,36.4403190612793000,63,144,98,78,80,11911,2146964397,2147516809,2147301897,2147522258,2147087204,2146919341,2147728786,2147123008,3157,-1,9,52938
1360394896,5806,1014.7500000000000000,242.3625030517578000,546.6724853515625000,6.0738449096679690,36.3610000610351560,64,145,97,79,81,11909,2146965906,2147514038,2147303634,2147521883,2147086226,2146917019,2147732397,2147126244,3179,-1,9,26972
1360398496,5803,1012.3800048828125000,242.2808990478515600,546.9378051757812000,6.0655231475830080,36.3693084716796900,64,144,97,79,80,11906,2146965851,2147515108,2147302125,2147523126,2147087680,2146923090,2147725229,2147122761,3164,-1,9,18053
1360402096,5805,1016.4799804687500000,241.6049041748047000,547.1292724609375000,6.0595169067382810,36.4070396423339840,63,145,98,78,80,11902,2146964864,2147516370,2147300379,2147524361,2147089444,2146919515,2147730212,2147125266,3528,-1,9,49987
1360405696,5805,1023.0900268554688000,242.1295013427734400,546.1727294921875000,6.0895199775695800,36.3636817932128900,62,146,98,78,81,11907,2146967926,2147516992,2147301796,2147520758,2147088877,2146914139,2147728859,2147124745,3354,-1,9,47477
1360409296,5807,1034.3000488281250000,239.2669982910156200,543.4788818359375000,6.1739640235900880,36.4614715576171900,63,146,98,78,82,11905,2146963611,2147520347,2147303259,2147522660,2147089737,2146923648,2147732717,2147119433,341,0,9,10785
1360412896,5808,1024.2399902343750000,235.0803070068359400,542.3461303710938000,6.2094569206237790,36.6573600769043000,63,145,99,78,81,11903,2146964251,2147519058,2147300544,2147521078,2147084242,2146921124,2147724297,2147121334,332,-1,9,15968
1360416496,5807,1021.1300048828125000,237.0444946289062500,543.6510009765625000,6.1685700416564940,36.5786285400390600,63,145,97,79,81,11902,2146963757,2147516763,2147296758,2147521609,2147089435,2146920448,2147726774,2147121901,548,-1,9,51768
1360420096,5806,1019.5300292968750000,240.2120056152343800,545.3728027343750000,6.1145992279052730,36.4469718933105500,62,146,97,78,81,11874,2146964425,2147518198,2147301449,2147522944,2147088347,2146916516,2147728356,2147125211,3177,-1,9,12203
1360421155,5804,1015.9099731445312000,241.5052032470703000,546.2426757812500000,6.0873241424560550,36.3960418701171900,64,145,97,79,80,11931,2146963584,2147515794,2147302208,2147522349,2147090084,2146917970,2147726390,2147124388,3538,-1,9,29124
